Theta_e
320 320 319 318 319 319 318 319 319 320 320 321 322 321 321 321 322 322 321 321 321 319 317 319 318 316 316 316 314 313 313 313 311 311 310 311 312 312 312 312 312 313 313 313 313 313 313 313 312 312 311 311 311 311 311 311 312 312 312 312 312 311 311 311 311 311 311 311 311 312 311 312 312 312 314 316 318 320 321 323 324 325 325 325 326 328 327
320 320 319 319 319 319 319 319 319 319 319 319 320 320 320 320 321 320 319 320 320 318 319 320 318 316 315 315 314 313 312 312 311 310 310 311 311 312 312 312 312 312 312 312 313 313 313 313 313 313 312 312 312 311 311 311 311 311 311 311 311 311 311 311 311 312 311 311 311 311 311 311 311 311 312 313 315 317 319 321 323 324 325 325 326 326 326
321 320 320 319 319 320 319 319 319 319 319 319 319 320 320 320 320 320 319 321 320 318 319 320 319 317 315 313 313 312 311 311 311 310 311 312 311 311 311 311 312 312 312 313 313 313 313 313 313 313 313 313 313 313 312 311 311 311 311 311 311 311 311 312 312 312 312 312 312 311 311 311 310 311 311 311 312 313 315 318 320 322 323 324 325 325 324
320 319 320 319 319 319 319 319 319 319 319 319 319 319 319 319 320 320 320 321 320 319 320 320 319 318 315 311 310 311 311 311 311 311 312 313 312 311 311 311 312 313 314 314 314 314 314 313 313 314 313 314 314 314 313 312 311 311 311 311 312 312 312 312 312 312 312 312 312 311 311 310 310 310 310 311 311 312 313 314 316 318 321 322 323 323 323
320 319 319 319 319 320 319 318 318 318 318 318 318 318 319 319 319 320 320 319 318 320 322 320 320 320 317 313 312 312 313 313 313 313 313 314 313 312 313 313 314 315 315 315 314 314 314 313 314 314 314 314 314 314 313 312 311 311 311 311 311 312 312 312 312 312 312 312 312 311 311 310 309 309 309 309 310 310 310 311 312 314 315 317 320 321 322
320 318 319 319 320 320 320 318 317 317 317 318 318 318 318 318 318 318 318 317 317 319 320 320 320 320 318 317 316 316 316 315 315 315 315 315 315 315 315 315 315 315 315 315 314 313 314 313 313 314 314 313 313 313 313 312 311 311 311 311 311 311 311 312 312 312 312 312 312 312 311 311 310 309 309 310 310 310 311 312 313 314 315 316 319 321 321
318 317 319 321 321 320 319 318 316 316 316 316 317 318 317 317 317 317 317 317 317 317 317 318 318 317 317 318 318 317 317 316 316 316 316 316 315 316 315 315 315 315 314 314 314 314 314 313 313 313 313 313 313 313 313 312 311 311 311 311 311 311 311 311 312 312 312 312 312 312 311 311 310 309 309 311 312 313 314 316 316 317 318 318 320 321 321
317 317 318 320 321 319 319 319 317 316 317 316 317 318 317 315 316 317 317 317 316 316 316 316 317 317 316 316 316 317 317 316 316 316 316 315 315 315 315 314 314 314 314 314 314 314 313 313 312 312 313 313 313 312 312 312 312 311 311 311 311 311 311 311 312 312 312 312 312 312 312 310 309 309 310 313 314 315 316 318 319 319 320 320 320 320 320
317 318 318 319 320 319 320 319 316 316 317 317 317 318 317 315 315 316 316 316 316 316 315 316 316 316 316 316 315 315 315 316 316 315 315 315 315 314 314 314 314 314 314 314 314 314 313 313 312 312 312 313 313 312 311 311 311 311 311 311 311 311 310 311 311 312 312 312 312 312 311 311 309 309 311 313 315 316 317 317 317 318 318 320 320 319 319
316 318 318 319 321 321 319 318 317 316 316 316 317 317 317 317 316 315 316 316 316 316 315 315 315 316 318 318 315 314 315 316 315 315 315 315 314 314 314 314 314 314 314 314 314 313 313 312 312 312 312 312 312 312 311 311 311 311 311 311 311 311 311 311 311 311 312 312 311 311 311 311 310 309 310 312 314 315 316 315 316 317 317 319 319 319 319
316 317 319 319 320 321 319 318 317 316 315 316 317 318 318 317 315 315 316 316 316 315 315 314 315 318 319 317 314 314 316 316 315 315 315 315 315 314 314 314 314 314 313 313 313 313 312 312 312 312 311 311 311 311 311 311 311 311 311 311 311 311 311 311 310 311 311 311 311 311 311 311 310 310 311 312 314 314 314 313 314 315 317 318 319 319 318
316 317 318 319 319 320 320 319 317 315 315 316 319 319 320 317 315 315 315 315 315 315 314 314 316 317 317 316 315 315 315 315 314 314 315 314 314 313 313 313 313 313 313 312 312 312 312 311 311 311 310 310 311 310 310 310 311 311 311 311 311 311 311 311 310 310 311 311 311 311 311 311 311 310 310 311 313 314 313 312 313 315 316 317 317 317 316
316 317 318 319 319 320 322 319 315 314 316 318 319 320 319 316 315 315 315 315 315 315 314 314 315 316 315 315 315 314 314 314 314 314 313 313 313 313 313 312 312 312 311 311 311 311 310 310 310 310 310 310 310 309 309 310 310 310 310 311 311 311 311 311 310 310 310 311 311 311 310 310 310 310 310 310 310 311 311 311 313 314 315 315 315 315 315
316 317 318 319 319 319 320 318 314 314 318 319 318 317 315 315 314 315 315 316 315 315 315 315 315 315 315 314 314 314 314 314 313 313 313 313 312 312 312 311 311 311 311 310 310 310 310 310 310 310 310 310 310 309 309 309 309 310 310 310 310 310 310 310 310 310 310 310 310 310 310 310 310 310 310 310 310 310 310 311 311 312 312 313 313 313 313
317 317 318 320 321 318 316 315 315 316 318 317 315 314 315 315 315 315 315 315 315 316 315 315 315 315 314 314 314 314 314 313 313 313 312 312 312 311 311 311 311 310 310 310 310 310 310 310 309 309 309 309 309 309 309 309 309 309 309 309 310 310 310 310 310 310 310 310 310 310 310 310 310 310 310 310 310 310 310 311 310 311 311 311 311 312 312
317 317 318 319 319 316 315 315 316 317 316 313 313 315 315 314 314 315 315 315 315 315 315 314 315 314 314 314 314 314 314 314 313 312 312 311 311 311 310 310 310 310 310 310 310 310 309 309 309 309 308 309 308 309 309 309 309 309 309 309 309 309 309 309 309 310 310 310 310 310 310 310 309 309 309 309 309 309 309 309 309 309 309 310 310 310 310
316 317 317 315 313 313 314 315 315 315 314 312 313 315 315 314 315 315 315 315 315 315 315 315 314 314 314 314 314 314 314 313 312 312 311 311 310 310 309 309 309 309 309 309 309 309 309 309 309 308 308 308 308 308 308 308 309 309 309 309 309 309 309 309 309 309 309 309 309 309 309 309 309 309 309 308 309 309 308 308 308 308 308 308 308 308 308
315 315 313 312 311 311 313 314 314 315 315 313 312 312 313 313 314 314 314 315 315 314 315 315 314 314 313 313 313 313 312 312 311 311 310 309 309 309 309 309 310 310 309 309 309 309 309 309 309 309 308 308 308 308 308 308 308 309 309 309 309 309 309 309 309 309 309 309 309 309 309 308 308 308 308 308 308 308 308 308 308 308 307 307 307 307 307
316 316 314 312 312 312 312 313 314 314 314 313 311 311 311 311 312 313 313 313 313 313 313 313 313 313 312 312 312 312 311 311 310 309 308 308 308 309 309 309 309 309 309 309 309 309 309 309 308 308 308 308 308 308 308 308 308 308 309 309 309 309 309 309 309 309 309 308 308 308 308 308 308 307 307 307 307 307 307 307 307 306 306 306 306 306 306
314 316 315 311 310 311 312 313 314 313 313 312 311 311 311 311 312 312 312 312 312 312 312 312 312 312 311 312 312 311 310 310 309 308 308 308 308 308 309 309 309 309 309 309 309 308 308 308 308 308 308 308 308 308 308 308 308 308 308 308 308 308 308 308 308 308 308 308 308 308 307 307 307 307 307 307 306 306 306 306 306 306 305 306 305 305 304
313 315 314 310 310 312 312 311 312 313 312 312 311 312 312 311 311 311 311 312 312 311 311 312 311 311 311 311 310 310 310 309 308 308 307 308 308 308 308 309 309 309 309 309 308 308 308 308 308 308 307 307 308 308 308 308 308 308 308 308 308 308 308 308 308 308 308 307 307 307 307 307 307 307 306 306 306 306 306 305 305 305 305 305 304 303 302
313 314 312 311 312 313 311 309 311 312 313 312 312 312 311 311 311 311 311 311 311 311 311 311 311 311 311 310 310 310 310 309 309 309 308 308 308 308 308 309 309 309 309 308 308 308 308 308 308 307 307 307 307 307 307 308 308 308 308 308 308 308 308 308 307 307 307 307 307 307 307 307 307 307 306 306 306 305 305 305 304 304 304 304 303 302 302
313 312 310 309 311 312 311 310 311 313 312 313 313 312 311 311 311 311 311 311 311 311 311 311 311 310 310 310 310 310 310 309 309 309 309 309 309 309 308 309 309 309 308 308 308 308 308 307 307 307 307 307 307 307 307 307 307 307 307 307 307 307 307 307 307 307 307 307 307 307 307 306 306 306 306 306 305 305 305 304 304 304 304 303 303 302 302
311 311 311 310 311 312 311 311 312 313 312 313 313 312 312 312 311 311 311 311 311 311 311 311 310 310 310 310 310 310 309 309 309 309 309 309 309 309 309 308 309 308 308 308 307 307 307 307 307 307 307 307 307 307 307 307 307 307 307 307 307 307 306 306 306 306 306 306 306 306 306 306 306 306 305 305 305 304 304 304 303 303 303 303 302 302 301
310 311 312 311 311 312 311 312 312 312 312 312 312 312 312 312 311 311 311 310 311 311 311 311 310 309 309 310 310 309 309 309 309 309 309 309 308 308 308 308 308 308 307 307 307 307 307 307 307 307 307 307 306 306 306 306 306 306 306 306 306 306 306 306 306 306 305 305 305 305 305 305 305 304 304 304 304 304 303 303 303 302 302 301 301 301 300
311 311 311 311 311 311 311 311 311 312 312 312 311 312 312 311 311 311 310 310 311 311 311 310 310 309 309 309 309 309 309 309 309 308 309 308 308 308 308 307 307 307 307 307 307 306 306 307 306 306 306 306 306 306 306 306 306 306 306 305 305 305 305 305 305 304 304 304 304 304 304 304 304 303 303 303 303 303 303 302 302 302 301 301 300 300 300
310 310 310 310 309 309 310 310 311 311 312 312 311 311 311 310 310 310 309 309 310 309 309 309 309 309 309 308 308 308 308 308 308 308 308 308 307 307 307 307 307 306 306 306 306 306 306 306 306 306 306 305 305 305 305 305 305 305 305 304 304 304 304 304 303 303 303 303 303 302 302 302 301 301 301 300 300 300 300 300 300 300 300 300 300 299 299
309 309 310 310 309 309 309 310 311 311 311 311 310 310 310 310 310 309 309 308 308 308 308 308 308 308 308 308 308 308 307 307 307 307 307 306 306 306 306 306 306 305 305 305 305 305 305 305 305 305 305 304 304 304 304 304 303 303 303 303 302 302 302 301 301 300 300 300 299 299 299 298 298 298 297 297 297 297 296 296 296 296 296 296 296 296 297
307 307 308 309 309 309 309 309 310 310 310 310 309 309 309 309 308 308 307 307 307 307 307 307 307 307 307 307 307 307 307 307 307 306 306 306 305 305 305 305 305 304 304 304 304 304 303 303 303 303 303 303 303 302 302 301 301 300 300 299 299 298 298 298 297 297 297 297 297 296 296 296 295 295 295 294 294 294 293 293 293 293 292 292 292 292 292
304 305 306 306 306 308 308 308 309 309 310 309 309 308 308 308 307 306 306 306 306 306 306 306 305 305 306 306 305 306 306 306 305 305 305 304 304 304 304 304 304 304 303 303 303 303 302 302 301 301 301 300 299 299 298 298 297 297 297 297 296 296 296 296 296 295 295 295 294 294 294 293 293 292 292 292 291 291 291 290 290 290 290 290 289 289 289
302 303 304 304 304 305 307 307 308 308 308 308 307 306 306 305 306 305 305 305 305 305 305 305 305 304 305 305 305 304 305 305 304 304 304 303 303 303 303 303 303 303 302 302 301 300 299 298 298 297 297 297 296 296 296 296 296 295 295 295 295 294 294 294 293 293 293 292 292 292 291 291 290 290 290 289 289 289 289 289 288 288 288 288 288 288 288
299 300 301 302 302 303 304 305 306 306 306 306 306 305 305 305 305 305 305 304 304 304 304 304 304 304 304 304 304 304 304 304 303 303 303 302 302 302 301 301 301 301 300 299 298 297 296 295 295 295 295 295 295 294 294 294 294 293 293 293 293 292 292 292 291 291 290 290 290 289 289 289 289 288 288 288 288 288 288 288 288 287 287 287 287 287 287
297 299 299 300 300 301 301 302 304 304 304 304 304 304 304 304 304 304 304 304 304 304 304 303 303 303 303 303 303 303 303 302 302 301 301 301 300 300 299 298 297 297 296 296 295 294 294 293 294 294 293 293 292 292 292 292 291 291 291 291 290 290 290 289 289 289 289 288 288 288 288 288 288 288 288 287 287 287 287 287 287 287 287 287 287 287 287
295 296 298 298 299 299 300 301 302 302 302 302 301 301 301 301 301 302 302 302 302 303 303 303 303 303 302 302 302 301 301 301 301 300 299 299 297 296 295 294 294 294 294 293 293 292 292 292 292 291 291 291 290 290 290 290 289 289 289 289 289 288 288 288 288 288 287 287 287 287 287 287 287 287 287 287 287 287 287 287 287 287 287 287 287 286 286
293 294 296 297 298 298 299 300 300 300 300 300 299 299 299 300 300 300 300 301 301 301 301 301 301 300 300 300 300 300 300 300 300 298 296 295 294 293 293 292 292 292 292 291 291 291 290 290 290 289 289 289 289 288 288 288 288 288 288 288 288 287 287 287 287 287 287 287 287 287 287 287 287 287 287 287 287 286 286 286 286 286 286 286 286 286 286
293 293 294 295 296 297 298 298 298 299 299 299 298 298 298 298 299 299 299 299 299 299 299 299 299 299 299 298 298 298 297 297 296 294 293 293 292 292 291 290 290 290 290 290 289 289 288 288 288 288 288 287 287 287 287 287 287 287 287 287 287 287 287 287 287 287 287 287 287 287 287 286 286 286 286 286 286 286 286 286 286 285 285 285 285 285 285
292 292 293 294 295 296 297 297 296 297 297 297 297 297 297 298 298 298 298 298 298 298 298 298 297 297 296 295 295 294 293 293 292 292 291 291 290 289 289 289 288 288 288 288 288 287 287 287 287 287 287 287 287 287 287 287 287 287 287 287 287 287 287 287 287 287 286 286 286 286 286 286 286 286 285 285 285 285 285 285 285 285 285 285 285 285 285
291 292 292 293 293 294 295 294 294 295 296 296 296 296 296 296 297 297 297 296 295 295 295 294 294 293 293 292 292 291 291 290 290 290 289 289 288 288 288 287 287 287 287 287 287 287 287 287 287 287 287 287 287 287 287 287 287 287 287 287 286 286 286 286 286 286 286 286 285 285 285 285 285 285 285 285 285 285 285 285 285 285 284 284 284 284 284
290 290 290 291 291 292 293 292 292 293 294 295 295 294 294 294 294 294 293 292 292 291 291 291 291 291 290 290 290 289 288 288 288 288 288 287 287 287 287 287 286 286 286 286 286 286 286 286 286 286 286 286 286 286 286 286 286 286 286 286 286 286 286 285 285 285 285 285 285 285 285 285 285 285 284 284 284 284 284 284 284 284 284 284 284 284 284
288 288 288 289 289 290 290 290 290 290 291 292 292 291 291 291 291 291 291 290 289 289 289 290 289 289 288 288 288 287 287 287 286 286 286 286 286 286 286 286 286 286 286 286 286 286 286 286 286 286 286 286 286 286 286 286 286 285 285 285 285 285 285 285 285 285 285 285 285 284 284 284 284 284 284 284 284 284 283 283 283 283 283 283 283 283 283
286 286 287 287 288 288 289 289 289 289 289 289 290 290 289 290 290 290 289 288 287 287 287 287 287 287 287 287 287 286 286 286 286 286 286 286 286 286 286 286 286 286 286 286 286 286 286 286 286 286 285 285 285 285 285 285 285 285 285 285 285 285 285 284 284 284 284 284 284 284 284 284 284 283 283 283 283 283 283 283 282 282 282 282 282 282 282
284 285 286 286 287 287 288 288 289 288 288 288 288 287 287 288 288 288 287 286 286 286 286 286 286 286 286 286 286 286 286 286 286 286 286 286 286 286 286 286 286 285 285 285 285 285 285 285 285 285 285 285 285 285 285 284 284 284 284 284 284 284 284 284 284 284 284 283 283 283 283 283 283 283 283 282 282 282 282 282 282 282 282 282 281 281 281
284 285 286 286 286 286 287 287 287 287 286 285 285 285 286 286 286 286 285 285 285 285 286 286 286 286 286 286 286 286 286 285 285 285 285 285 285 286 286 286 285 285 285 285 285 285 285 285 284 284 284 284 284 284 284 284 284 284 284 284 283 283 283 283 283 283 283 282 282 282 282 282 282 282 282 282 282 282 282 282 282 281 281 281 281 280 280
283 284 284 285 285 285 285 286 286 285 285 285 284 285 285 285 285 285 285 285 285 286 286 286 286 286 286 286 286 286 286 285 285 285 285 285 285 285 285 285 285 285 284 284 284 284 284 284 283 283 283 283 283 283 283 283 283 283 283 283 283 282 282 282 282 282 282 282 282 282 282 282 282 282 282 282 282 282 281 281 281 281 280 280 280 279 279
283 284 284 284 285 285 285 286 286 286 285 285 285 285 285 285 285 285 285 286 286 286 285 286 286 285 285 285 286 286 285 285 285 285 285 285 285 284 284 284 284 284 284 283 283 283 283 283 283 282 282 282 282 282 282 282 282 282 282 282 282 282 282 282 282 282 282 282 282 282 282 282 282 282 281 281 281 281 280 280 280 279 279 279 278 278 278
283 284 284 285 285 286 286 286 286 286 286 286 286 286 285 285 285 285 285 285 285 285 285 285 285 285 285 285 285 285 285 284 284 284 284 284 284 284 283 283 283 283 283 282 282 282 282 282 282 282 282 282 282 282 282 282 282 282 282 282 282 282 282 282 282 282 282 282 281 281 281 281 281 281 280 280 280 279 279 279 278 278 278 277 277 277 277
283 284 284 285 285 285 285 285 285 285 285 285 285 285 284 284 285 285 285 285 285 285 284 284 284 284 284 284 284 284 284 283 283 283 283 283 283 283 282 282 282 282 282 282 282 281 281 281 281 281 281 281 281 282 282 282 282 282 282 282 281 281 281 281 281 281 281 281 281 280 280 280 280 279 279 279 278 278 277 277 277 277 276 276 276 275 275
283 284 284 284 284 284 284 284 285 285 285 285 285 284 284 284 284 284 284 284 283 283 283 283 283 283 283 282 282 282 282 282 282 282 282 282 282 282 282 282 281 281 281 281 281 281 281 281 281 281 281 281 281 281 281 281 281 281 281 281 281 280 280 280 280 280 280 280 279 279 279 279 278 278 278 277 277 276 276 276 275 275 275 275 274 274 274
283 283 283 283 284 283 284 284 284 284 284 284 283 283 283 283 283 283 283 282 282 282 282 281 281 281 281 281 281 281 281 281 281 281 281 281 281 281 281 281 281 281 281 281 280 280 280 280 280 280 281 280 280 280 280 280 280 280 280 280 279 279 279 279 279 279 278 278 278 278 278 277 277 276 276 276 275 275 275 274 274 274 274 274 274 273 273
283 283 283 283 283 283 283 283 283 283 282 282 282 282 282 282 282 282 282 281 281 281 281 281 281 281 281 281 281 281 281 281 281 281 281 281 281 281 281 281 280 280 280 280 280 280 280 280 280 280 280 279 279 279 279 279 279 279 278 278 278 278 278 277 277 277 277 277 276 276 276 276 275 275 275 274 274 274 274 274 273 273 273 273 273 273 273
282 282 282 282 282 282 282 282 282 282 282 281 281 282 281 281 281 281 281 281 281 281 281 281 281 281 281 281 281 281 281 281 281 281 280 280 280 280 280 280 280 279 279 279 279 279 279 279 279 279 278 278 278 278 278 278 277 277 277 277 277 276 276 276 276 276 275 275 275 275 275 274 274 274 274 274 273 273 273 273 273 273 273 273 273 273 272
281 281 281 281 281 281 281 281 281 281 281 281 281 281 281 281 281 281 281 281 281 280 281 281 281 281 281 280 280 280 280 280 280 280 279 279 279 279 279 278 278 278 278 278 278 278 278 277 277 277 277 277 277 277 276 276 276 276 275 275 275 275 275 275 275 274 274 274 274 274 274 273 273 273 273 273 273 273 273 273 273 273 273 273 272 272 272
Wind_Speed
8 8 10 14 15 15 17 19 20 21 20 17 15 15 16 13 9 12 18 18 21 24 15 9 9 10 9 10 12 14 12 11 11 13 16 16 14 11 8 5 3 2 3 4 6 8 9 10 11 11 10 9 8 7 7 8 8 9 10 10 12 13 14 15 16 16 16 17 19 20 22 23 25 25 25 24 24 25 26 26 26 26 25 25 27 29 31
8 9 12 14 15 14 13 17 20 20 21 22 21 20 21 19 16 19 24 23 25 21 9 7 11 15 17 15 14 15 14 14 14 15 18 17 16 15 13 11 8 7 6 6 7 8 9 10 12 13 12 12 12 10 10 9 8 8 9 10 11 12 13 14 15 15 15 16 17 19 20 21 23 23 24 25 25 26 26 26 26 26 26 27 28 28 28
7 8 12 13 15 15 15 17 18 18 19 19 19 19 19 18 19 24 22 18 21 14 5 4 9 14 16 13 14 17 16 15 16 17 18 18 18 20 18 16 15 14 14 14 13 13 13 12 13 14 15 15 14 14 13 12 10 10 10 10 11 12 13 14 14 15 15 15 16 17 18 19 20 21 22 24 25 26 26 27 27 27 26 27 28 27 28
6 8 12 15 14 13 14 16 18 19 19 18 19 22 21 18 19 20 15 14 17 8 6 6 9 9 9 11 15 17 16 16 18 19 19 20 22 24 22 21 20 20 20 20 18 16 15 15 15 16 16 16 16 16 15 14 13 12 13 13 13 13 13 13 14 14 14 14 14 15 16 16 17 18 19 20 22 24 25 26 27 27 28 27 27 27 29
8 7 11 14 12 9 10 15 21 24 24 23 23 22 22 20 17 14 13 17 16 5 7 11 11 9 9 11 15 17 17 19 22 22 23 24 26 26 26 26 25 23 21 20 18 16 14 14 15 16 16 17 17 16 15 15 14 14 15 15 15 15 14 14 14 14 13 13 13 13 14 14 15 15 15 15 16 18 20 21 23 24 26 27 27 28 29
7 7 9 9 10 11 12 15 22 27 27 26 22 19 20 18 15 14 16 19 16 7 8 11 9 10 14 17 22 24 24 25 25 27 29 29 28 28 27 26 25 21 20 19 17 15 14 14 14 14 15 15 15 14 14 14 14 14 16 17 17 17 17 16 15 14 13 12 11 12 12 13 14 13 13 12 12 12 14 15 16 18 21 23 25 26 27
5 8 8 8 11 13 9 8 16 21 21 20 20 21 22 21 21 23 23 22 16 10 10 13 14 17 20 22 27 29 27 27 30 34 35 31 27 26 25 24 23 21 20 19 17 16 15 14 13 13 14 14 13 13 13 13 13 14 15 18 19 19 19 17 16 15 13 12 11 12 12 12 13 13 12 12 12 12 13 14 16 17 19 21 23 23 23
5 6 8 9 7 4 4 7 12 13 12 14 17 20 23 24 23 21 22 23 18 14 17 20 21 22 22 23 27 30 28 29 35 39 37 31 26 24 24 24 23 22 22 20 19 20 20 18 16 16 17 17 14 14 14 13 13 13 15 16 18 18 17 16 15 15 14 13 13 12 12 12 12 13 13 13 13 13 14 15 17 18 20 20 20 20 20
3 6 9 7 1 2 5 9 12 16 16 19 19 17 19 19 18 17 20 23 22 21 24 24 19 13 11 14 20 26 28 31 36 39 36 30 26 24 22 22 22 22 23 23 25 26 25 23 21 20 21 21 17 16 16 16 14 14 14 15 15 16 15 14 14 14 14 14 13 12 12 12 12 12 13 14 14 15 16 16 17 17 18 18 18 18 18
3 5 7 6 3 7 12 12 16 21 21 18 13 9 12 13 19 25 26 25 24 20 18 19 16 9 8 11 10 18 27 37 39 37 35 32 29 28 27 26 26 27 28 29 30 29 27 26 25 24 24 22 18 17 19 18 16 15 15 14 13 14 14 14 14 14 15 15 14 13 12 12 12 13 13 14 14 15 16 17 17 17 16 17 18 19 19
4 6 7 7 8 13 11 11 14 18 19 15 11 4 14 16 20 29 28 23 21 17 14 18 15 9 11 11 8 16 30 39 36 33 34 32 30 29 30 29 29 29 29 29 28 27 27 26 25 24 23 20 18 19 20 20 18 16 15 13 12 12 13 14 15 15 14 14 14 13 12 12 13 13 14 15 15 16 16 16 17 17 18 18 18 20 21
6 8 7 5 7 10 7 13 14 19 26 22 13 5 16 15 18 30 31 24 23 23 21 20 13 10 15 15 12 22 31 29 24 23 24 22 20 21 22 22 23 23 23 23 23 23 24 23 22 21 19 19 19 20 21 20 18 15 14 13 13 13 14 15 15 15 15 14 14 13 13 12 13 13 14 16 17 18 18 18 17 18 18 18 19 20 22
8 10 8 5 7 6 7 13 19 27 28 17 10 13 12 6 18 32 34 28 29 31 27 20 15 23 32 26 18 19 20 17 17 17 16 16 16 16 18 18 17 17 18 19 20 21 21 21 19 18 18 19 20 20 20 19 17 15 14 15 15 16 16 16 16 16 15 15 14 14 13 13 13 14 14 15 16 17 18 18 19 19 20 20 21 23 25
6 7 6 5 7 6 11 17 26 33 21 10 12 9 4 11 20 31 35 35 36 37 35 33 34 39 38 26 17 16 16 17 17 16 15 15 15 15 17 16 15 16 17 19 20 20 20 19 17 16 16 18 19 19 19 18 17 17 17 17 17 16 16 16 16 16 16 15 15 14 14 14 13 13 13 14 15 16 17 18 19 20 22 23 25 28 30
4 2 5 6 9 7 21 23 21 22 14 8 5 5 6 8 16 23 30 33 35 38 40 43 45 40 29 21 19 19 20 19 18 17 17 16 15 16 17 17 17 18 19 20 20 19 18 16 15 15 16 17 18 18 19 18 19 19 19 18 16 15 15 15 15 15 15 14 14 13 13 13 13 12 12 13 14 15 16 18 20 21 23 25 27 30 31
6 6 10 8 5 8 29 26 13 13 8 0 5 6 4 7 11 17 23 26 29 34 35 34 35 32 25 21 21 20 20 20 20 19 18 18 19 19 18 18 17 16 17 17 17 16 15 14 13 13 14 15 16 16 17 17 17 17 16 15 14 13 13 12 12 12 12 12 12 12 12 12 12 12 12 13 13 14 15 17 18 20 21 22 23 25 25
9 6 9 7 1 10 28 23 17 23 17 3 6 12 10 12 15 16 21 26 29 32 33 31 30 29 26 23 21 19 20 20 19 19 19 19 19 18 16 15 13 11 11 11 10 10 9 9 9 9 10 11 11 12 12 13 13 13 12 11 11 10 10 9 9 10 10 10 10 10 11 11 11 12 12 12 13 13 14 15 16 17 17 18 19 20 20
8 8 7 3 1 10 22 17 20 36 31 12 7 13 15 20 22 19 22 27 26 26 28 28 26 25 23 22 20 19 19 18 18 19 18 17 16 14 13 11 8 7 8 7 6 6 6 6 7 7 7 8 8 9 10 10 10 10 10 10 10 9 9 9 9 9 9 9 9 9 9 10 9 9 10 10 11 11 12 13 13 14 15 16 17 18 19
9 10 9 6 4 12 20 17 19 31 29 16 11 11 11 16 20 18 19 20 20 21 22 21 21 21 21 21 21 20 19 18 18 18 16 16 16 14 11 8 7 7 7 6 6 6 6 6 7 7 7 8 8 9 9 10 10 10 10 10 10 10 10 10 9 9 8 8 8 7 7 8 7 8 8 8 8 9 9 10 11 11 12 13 14 15 16
9 9 8 9 12 18 24 23 22 27 25 17 13 12 11 15 19 19 19 19 19 20 20 19 20 21 20 21 21 21 21 20 19 18 17 17 17 15 11 10 9 9 8 7 7 6 6 7 7 7 8 9 9 10 10 11 11 10 10 11 10 10 10 9 8 7 7 6 6 6 6 6 6 6 7 7 7 8 8 9 9 10 10 11 11 12 13
7 8 5 7 10 14 20 23 23 27 26 19 14 13 15 18 21 19 18 18 18 18 18 19 19 19 20 20 21 21 22 21 19 18 18 18 17 15 14 13 12 10 9 8 8 8 8 8 8 9 9 10 10 11 12 12 12 12 11 10 9 8 7 6 6 5 5 4 4 5 5 5 5 5 6 7 7 8 8 9 9 10 10 11 11 12 13
12 12 8 10 7 4 11 17 19 24 27 24 21 21 21 19 19 18 18 18 17 17 17 18 18 19 20 21 21 22 21 20 18 18 18 18 18 16 16 15 13 11 10 9 8 8 8 9 10 10 10 11 12 12 12 12 11 10 9 8 7 6 5 4 4 3 3 3 3 4 5 5 6 6 7 7 8 8 8 9 10 11 11 12 12 13 14
12 7 12 17 9 4 13 24 26 28 33 32 31 31 26 21 19 17 18 19 18 16 17 18 19 20 21 22 22 22 21 20 19 18 18 18 19 18 17 16 14 11 10 9 9 9 9 10 11 11 11 12 12 11 10 9 8 7 6 5 5 4 3 2 2 2 2 3 4 5 6 7 7 8 8 9 9 10 10 10 11 11 12 13 13 14 14
7 5 17 26 17 9 20 33 33 32 35 37 38 37 31 26 24 22 20 18 16 15 17 20 22 22 22 23 23 23 23 22 20 20 21 20 20 20 18 16 14 12 11 11 11 11 11 12 12 12 11 11 10 9 9 8 7 6 5 4 4 3 2 2 1 1 2 3 4 5 6 7 8 8 9 10 10 11 12 12 13 13 13 14 14 15 15
14 10 18 27 26 21 24 31 35 36 36 37 38 38 35 31 28 25 21 18 16 16 19 23 25 24 23 24 26 25 25 25 23 23 24 23 22 21 19 17 15 14 13 13 13 13 14 14 13 13 12 11 10 9 8 8 7 6 6 5 4 4 3 3 2 2 2 3 3 4 5 6 7 8 9 9 10 11 11 13 13 14 14 15 15 16 16
25 18 16 23 30 29 26 28 34 38 38 37 37 36 34 33 30 26 23 21 19 19 22 26 28 26 24 25 28 27 27 27 26 25 24 24 24 22 20 18 16 15 14 14 14 14 15 14 14 13 12 11 11 10 9 8 7 7 6 6 5 4 4 3 3 2 2 3 3 4 5 6 7 8 8 9 10 10 11 11 12 12 13 14 15 16 16
28 24 19 17 19 24 28 30 34 38 40 40 37 34 33 33 33 30 28 25 23 23 25 27 29 28 26 27 28 28 28 28 27 26 25 24 24 22 20 19 17 16 15 15 15 15 15 14 14 13 12 12 11 10 9 8 8 7 7 6 5 5 4 3 3 2 2 3 3 4 5 6 7 7 8 9 10 11 12 12 12 13 13 13 14 14 15
23 24 25 19 16 24 33 34 32 35 39 39 37 34 32 32 32 32 30 28 25 25 26 26 27 28 29 30 29 29 28 28 28 27 26 24 23 22 21 20 19 18 17 16 16 16 15 14 14 14 13 13 12 11 11 10 9 8 7 6 6 5 4 3 3 2 2 2 3 4 5 6 7 8 9 9 10 11 12 12 13 13 14 14 14 14 14
19 22 26 25 22 25 30 31 28 30 34 36 36 34 33 32 31 30 30 28 26 26 27 27 26 26 28 29 29 29 29 29 28 27 26 25 23 22 21 20 20 19 18 17 17 17 16 16 15 15 15 14 14 13 12 11 10 9 8 7 6 5 4 3 2 2 3 3 4 5 6 6 7 8 9 10 10 11 11 12 12 13 13 13 14 14 14
16 19 22 21 19 19 23 28 29 28 30 33 34 33 32 32 31 30 29 28 27 27 28 28 27 26 27 27 27 27 28 28 28 27 26 26 24 23 22 21 21 21 20 19 19 18 17 17 16 16 16 15 14 13 12 11 10 9 7 6 5 4 3 3 3 4 5 5 5 6 6 7 7 8 8 9 9 10 10 10 11 11 11 12 12 13 13
14 16 18 18 17 17 21 26 28 27 28 30 31 31 30 30 30 29 29 27 27 27 27 28 28 28 28 28 27 27 27 27 28 27 27 27 26 25 24 22 21 21 21 21 20 19 18 17 16 15 15 14 13 12 10 9 8 7 6 5 5 4 4 4 4 4 5 5 5 5 6 6 6 7 7 8 8 9 9 10 10 11 11 12 12 13 14
11 13 14 15 15 16 19 24 26 27 27 27 28 29 30 30 30 31 29 28 28 28 28 29 29 29 29 29 28 28 28 28 28 28 28 27 26 25 25 23 21 21 22 21 20 19 17 16 15 14 13 12 11 10 9 8 8 7 6 6 5 4 4 4 4 3 4 4 4 5 5 6 6 7 8 9 9 10 11 11 12 12 13 14 14 15 16
11 10 10 14 16 17 19 24 26 26 27 27 26 27 29 29 29 30 30 29 29 29 28 29 29 29 29 29 29 29 29 29 29 29 28 28 27 26 24 23 21 21 21 20 19 18 16 14 14 13 12 11 11 10 9 8 7 6 6 5 4 3 3 3 3 3 3 4 4 5 5 6 7 8 9 10 11 12 13 13 14 15 15 16 16 17 18
13 10 10 14 18 19 20 24 26 26 27 27 26 26 27 27 27 28 28 29 29 29 29 29 28 28 29 29 29 29 30 30 30 30 29 28 27 26 24 23 21 19 19 18 17 16 15 13 13 12 11 11 10 9 8 8 7 6 5 4 3 3 2 2 2 3 3 4 5 6 7 8 9 10 11 12 13 14 15 16 17 17 18 18 19 20 21
13 11 10 13 17 18 18 21 25 27 28 28 26 26 26 26 26 27 28 28 28 28 28 29 29 29 29 29 29 29 28 28 29 30 28 27 26 24 23 21 19 18 18 17 16 14 13 12 12 11 10 9 9 8 7 6 5 5 4 3 2 2 2 2 3 4 5 6 7 8 10 11 12 13 14 15 16 17 18 19 19 20 21 21 22 22 23
12 10 9 11 14 15 16 20 25 26 27 28 27 26 26 25 25 27 28 28 28 29 29 30 30 30 29 29 29 28 28 27 28 28 27 25 24 23 21 20 18 17 16 16 15 14 13 12 11 10 10 9 7 6 6 5 4 3 2 1 1 2 3 5 6 7 9 10 11 12 13 14 14 15 16 17 18 19 20 20 21 22 23 23 24 24 25
11 10 9 10 12 13 17 22 25 26 26 27 26 27 27 27 28 29 29 29 29 30 30 30 30 30 30 29 28 27 27 26 25 25 25 24 23 22 21 20 18 16 15 15 15 14 12 11 10 9 8 7 6 5 4 3 2 1 2 3 4 5 7 8 9 10 11 12 13 14 14 15 16 17 18 19 20 21 22 23 23 24 25 26 26 27 28
10 10 10 11 13 16 19 22 23 23 25 26 26 27 27 28 29 30 30 30 30 30 29 29 29 29 29 28 27 26 26 24 24 23 23 22 21 20 19 19 17 15 14 13 13 12 10 9 9 7 6 4 3 2 1 1 2 3 5 6 7 8 9 10 10 11 12 13 14 15 16 17 18 19 20 21 22 23 24 25 26 27 28 29 29 30 31
12 13 13 14 16 19 21 23 23 22 23 25 27 28 28 29 31 32 33 32 30 28 27 27 27 27 26 26 26 26 25 24 23 22 22 22 20 19 18 17 16 14 13 13 12 10 8 7 6 4 2 1 1 2 3 4 5 6 6 7 8 9 10 11 11 12 14 14 15 16 17 18 20 21 22 23 24 25 26 27 28 29 30 31 31 32 33
16 17 18 19 20 22 24 26 27 27 27 28 30 30 31 31 32 33 32 31 28 25 23 23 24 25 24 24 25 25 25 23 22 21 21 20 19 17 16 16 14 13 12 10 9 7 6 4 3 1 1 2 3 4 5 6 6 7 8 9 10 10 11 12 13 14 15 16 17 18 19 20 22 23 24 25 26 27 28 29 30 31 32 32 33 34 34
20 21 22 24 26 28 29 30 32 33 33 32 32 32 31 29 30 30 30 29 27 25 23 22 23 24 24 24 24 24 24 22 21 20 19 18 17 14 13 13 12 11 9 7 6 4 3 2 1 2 3 5 5 6 7 7 8 9 10 11 12 13 14 15 16 17 18 19 20 21 22 23 25 26 27 28 29 30 31 32 33 33 34 35 35 36 36
26 27 28 30 32 33 34 34 35 36 35 34 32 32 30 28 28 29 29 29 28 26 25 24 23 24 24 23 22 22 22 20 19 17 16 15 14 12 10 9 9 7 5 4 3 3 3 3 4 5 6 7 8 8 9 10 11 12 13 14 15 16 17 18 20 21 22 23 24 25 26 27 28 29 29 30 31 32 33 34 35 35 36 36 37 37 38
33 33 34 36 36 35 35 35 35 36 36 35 33 31 30 29 29 29 29 28 27 25 25 24 23 23 22 20 19 20 19 17 16 14 13 12 11 9 7 6 5 4 3 3 4 4 5 6 7 7 8 9 10 11 12 13 14 15 16 17 19 20 21 22 23 24 25 26 27 28 28 29 30 31 32 32 33 33 34 35 35 36 36 36 37 37 37
37 36 37 37 36 36 35 35 35 36 36 35 33 31 30 30 29 28 27 26 25 23 22 21 20 20 19 17 16 16 15 14 12 11 9 8 7 6 5 4 3 2 3 4 5 6 7 8 9 10 11 12 13 14 15 16 18 19 20 21 22 24 25 25 26 27 28 28 29 30 30 31 31 32 33 33 34 34 35 35 35 35 35 36 36 36 36
38 37 36 36 35 34 34 33 33 33 33 32 31 29 28 27 26 25 23 22 21 20 19 18 17 16 15 13 12 11 11 10 8 7 6 4 3 2 1 1 3 5 6 7 9 10 11 13 14 15 16 17 18 19 20 21 22 23 24 25 26 27 27 28 29 29 30 30 31 31 32 32 33 33 33 34 34 34 34 35 34 34 34 34 34 34 34
37 36 34 33 33 32 32 31 31 30 29 29 28 28 26 24 23 22 20 19 18 17 16 15 13 12 11 10 8 7 7 6 4 3 2 1 1 2 4 5 7 9 10 12 13 15 16 17 18 19 20 21 22 23 24 24 25 26 27 28 28 29 29 30 30 31 31 32 32 32 33 33 33 33 33 33 33 33 33 33 33 32 32 32 31 31 31
34 33 32 31 31 30 30 29 28 27 25 25 26 26 24 21 20 19 18 16 15 14 12 11 10 8 7 6 4 3 2 1 0 2 3 4 5 7 9 10 12 13 15 16 18 19 20 21 22 23 24 24 25 26 26 27 28 29 29 30 30 31 31 31 32 32 32 32 32 32 32 32 32 32 32 32 32 31 31 31 31 30 29 29 29 29 28
31 31 30 30 29 28 26 25 25 24 23 23 23 22 20 18 16 15 14 13 11 10 8 7 6 4 3 1 0 2 3 3 4 6 8 9 10 11 13 15 16 17 19 20 22 23 25 25 26 27 27 27 28 28 29 29 30 30 31 31 31 31 31 31 31 31 31 31 31 31 31 31 31 30 30 30 29 29 28 28 28 27 27 27 27 27 27
28 28 27 26 25 24 22 21 21 21 20 19 18 17 16 14 12 11 10 9 7 6 4 3 2 1 2 3 4 6 7 8 8 10 11 13 14 15 17 19 20 22 23 24 25 26 27 28 29 29 29 30 30 30 30 31 31 31 31 31 31 30 30 30 30 30 30 30 30 30 30 29 28 28 28 27 27 26 26 26 26 25 25 25 26 26 25
24 23 22 21 21 20 17 16 15 16 16 14 13 12 11 9 7 6 5 4 2 1 1 2 4 5 6 8 9 10 12 13 13 15 16 17 18 20 21 23 24 25 26 27 27 28 28 29 30 30 30 30 31 31 31 31 31 30 30 30 29 29 29 29 28 28 28 28 28 28 27 27 26 26 25 25 24 24 24 24 24 24 24 24 25 25 25
18 17 17 16 16 15 13 11 10 10 10 8 7 7 5 4 2 1 1 2 3 5 7 8 9 10 11 13 14 15 16 17 18 19 20 21 22 23 24 25 26 27 28 28 29 29 29 30 30 30 30 31 30 30 30 30 29 29 28 28 27 27 27 27 26 26 26 26 26 26 25 25 24 24 23 23 23 23 23 23 24 24 24 24 24 24 24
14 14 13 12 11 10 9 7 7 6 5 3 2 2 2 3 4 5 6 7 8 10 11 13 14 15 16 17 18 19 20 21 21 22 22 23 24 24 25 26 27 28 28 29 29 29 29 29 29 29 29 29 29 28 28 27 27 26 26 26 25 25 25 25 25 24 24 24 24 24 24 23 23 23 23 23 23 23 23 23 23 24 24 24 24 24 24
Wind_Direction
173 127 141 158 168 177 178 176 179 185 184 182 194 210 215 211 207 229 235 229 237 246 236 195 198 207 213 219 206 203 210 204 192 185 182 183 184 184 187 180 154 90 30 21 21 22 21 17 12 9 6 358 348 334 319 303 292 286 279 277 276 274 275 276 274 271 266 264 263 261 261 260 259 257 254 250 247 245 245 246 247 248 248 245 245 249 244
182 147 147 163 176 176 178 185 187 186 187 190 196 205 214 213 212 227 231 231 238 242 220 192 209 206 209 213 195 187 192 190 189 191 194 198 199 203 214 219 223 246 273 294 316 330 341 351 356 354 352 349 344 336 328 319 306 293 282 276 273 272 273 273 271 270 266 262 260 259 260 260 259 258 255 252 248 243 241 239 240 242 242 242 243 245 245
198 165 154 168 178 176 180 189 191 188 190 197 204 212 217 214 220 231 235 243 254 246 174 178 225 207 199 192 178 181 184 186 195 201 207 217 219 219 227 235 246 261 269 276 289 301 309 316 322 326 328 330 331 329 324 316 307 299 290 281 273 270 272 272 272 272 270 266 263 261 261 260 259 257 254 251 248 244 240 235 235 236 237 241 244 242 244
206 185 169 171 174 179 188 191 190 189 189 195 205 213 214 208 216 228 233 246 253 234 147 201 234 209 187 174 177 185 185 193 210 217 224 236 234 230 236 248 260 270 273 277 285 292 297 301 304 308 312 313 316 321 321 312 300 293 292 289 280 271 269 270 270 270 268 267 266 264 262 261 258 254 251 249 246 244 242 237 234 234 234 238 241 241 247
203 192 174 169 163 174 201 200 192 188 192 199 204 212 216 211 210 215 220 232 236 189 153 210 221 212 209 199 193 197 203 214 228 233 235 240 240 240 248 258 265 272 275 278 284 288 293 297 299 301 303 303 306 311 315 311 298 288 284 284 281 276 271 269 268 267 266 265 265 264 263 261 257 251 246 245 243 241 241 238 235 234 234 235 237 240 248
187 162 153 156 168 197 214 205 193 191 194 198 202 214 218 213 214 222 228 237 236 206 191 211 211 206 213 215 215 216 220 226 234 238 239 242 247 251 255 261 267 271 275 280 283 286 293 296 295 296 296 298 301 302 304 305 300 289 279 276 276 274 273 271 270 268 266 263 263 262 259 256 253 247 240 237 238 236 234 233 233 235 235 235 238 243 249
158 148 149 167 202 219 213 181 185 194 198 198 205 221 221 211 215 224 232 241 239 225 223 227 228 227 220 218 222 222 221 227 235 244 247 247 248 250 253 260 267 271 275 278 279 284 292 291 285 287 291 295 295 290 288 291 292 289 281 275 275 274 273 274 273 270 267 264 261 258 253 249 245 241 234 228 226 225 225 229 232 235 236 235 240 246 249
145 154 172 191 215 218 142 145 165 176 193 201 208 227 229 217 214 221 233 243 241 236 236 230 226 228 223 222 226 223 220 227 238 246 251 249 247 249 253 260 265 267 269 269 271 279 288 285 279 280 286 290 287 277 273 275 280 283 282 279 278 278 277 276 273 270 265 262 259 257 252 245 238 234 229 225 224 224 227 232 234 234 236 237 239 242 245
168 167 187 208 304 68 163 183 172 170 189 200 199 222 235 222 213 217 227 235 234 229 230 225 218 215 219 233 230 217 218 232 242 246 249 251 252 254 255 257 258 259 260 264 270 277 280 278 275 276 279 282 278 268 263 264 268 273 276 278 279 279 278 276 272 268 263 260 259 258 256 249 240 232 227 224 225 228 233 238 239 238 237 238 238 239 243
166 160 191 211 240 230 213 197 182 184 194 193 183 216 249 227 207 212 221 227 228 226 223 216 209 208 246 259 217 193 218 238 242 244 248 251 253 256 256 256 254 255 259 264 269 272 272 271 272 272 273 273 267 259 256 256 258 262 268 272 275 277 277 274 270 266 261 260 260 259 260 255 244 235 228 226 226 229 234 237 240 243 242 240 240 239 239
158 172 196 190 214 239 219 173 174 182 176 155 126 180 251 241 210 208 219 225 224 222 209 197 191 200 242 248 183 191 233 245 242 244 249 251 254 257 257 256 256 258 261 262 264 267 267 268 269 267 266 264 258 255 252 250 250 253 258 264 268 270 271 268 266 265 262 260 259 258 258 255 247 237 229 226 227 230 233 233 234 239 242 240 239 237 233
175 185 198 195 233 246 184 153 168 164 150 134 115 196 248 244 203 203 213 218 217 215 203 190 183 201 227 238 224 223 239 247 240 239 244 243 244 246 246 249 251 253 255 256 257 260 262 263 264 261 257 254 252 253 251 248 248 249 251 256 257 258 259 258 258 259 257 254 253 252 252 250 246 239 230 225 225 228 232 231 230 234 239 239 237 235 234
187 192 204 226 252 239 161 158 161 145 134 133 164 215 231 181 175 198 208 209 211 211 201 190 201 223 229 235 232 219 222 229 224 220 220 221 227 232 234 238 242 245 251 253 254 256 258 259 259 254 250 248 248 249 250 251 254 254 252 252 250 250 252 252 252 252 250 249 247 245 244 244 242 239 234 229 228 228 229 230 230 232 237 238 238 239 241
189 200 211 237 260 221 156 153 151 143 144 183 201 196 153 133 168 192 199 202 205 204 200 202 214 225 227 223 211 199 206 219 219 215 220 226 228 226 225 230 238 245 250 251 251 254 256 256 253 247 242 242 244 248 251 253 256 258 255 251 248 247 248 249 248 246 243 244 245 244 245 247 246 244 241 236 235 235 234 234 235 236 238 240 242 244 247
162 200 203 225 266 197 147 146 153 158 174 214 183 105 73 136 172 186 193 201 204 200 201 207 214 221 220 212 212 216 219 226 229 231 236 234 225 222 224 233 242 245 244 243 244 247 247 245 242 237 235 237 240 244 247 248 250 252 251 248 245 244 245 246 245 243 242 243 246 247 247 248 247 245 243 240 239 239 239 240 241 243 244 245 247 249 251
165 193 198 204 282 164 152 153 171 189 197 147 132 147 127 144 171 185 194 205 206 203 206 211 213 218 218 215 219 220 220 229 233 233 231 226 222 226 231 234 238 237 237 237 234 233 233 231 232 234 235 238 240 241 243 244 246 247 246 245 243 242 242 242 240 240 240 239 241 241 240 240 240 239 238 238 239 240 242 243 245 247 248 250 251 253 255
191 211 204 189 11 172 170 167 173 189 202 217 158 183 191 181 186 193 197 203 205 205 208 210 211 216 218 217 220 222 223 227 226 222 222 222 224 228 226 223 224 224 229 231 225 225 227 224 227 233 233 236 238 238 239 238 237 237 235 234 233 229 227 226 222 221 223 223 225 228 228 230 233 234 236 239 241 244 247 249 252 254 256 257 258 259 260
222 266 250 200 76 186 188 185 179 187 198 212 187 192 199 191 188 189 193 197 196 196 202 205 204 209 214 216 219 220 219 218 214 214 216 212 209 207 201 201 208 211 217 221 219 222 219 211 218 222 219 222 223 223 225 222 218 220 216 210 207 202 197 196 195 196 200 203 209 214 220 225 229 232 236 240 243 249 253 256 261 265 265 267 267 266 266
206 243 235 193 175 193 193 193 189 188 194 206 208 204 197 182 176 173 178 182 180 181 191 196 196 202 210 214 214 212 209 209 207 205 201 193 189 187 185 190 198 198 202 208 210 210 204 198 201 202 200 203 204 204 207 205 201 200 193 187 183 179 177 177 178 182 189 195 201 208 214 221 227 231 237 243 248 255 260 264 268 271 272 274 275 275 275
202 234 228 183 184 197 194 192 193 192 193 199 200 198 192 181 175 171 170 174 178 182 187 191 195 202 207 209 208 203 201 203 200 193 189 186 184 185 189 191 188 186 189 197 200 199 198 194 192 190 191 192 191 193 192 187 182 178 174 172 171 169 171 173 174 180 189 195 202 210 217 223 228 231 237 245 249 252 257 261 265 268 271 274 276 278 278
233 267 257 173 177 200 201 198 197 196 196 197 195 196 197 190 186 183 177 176 181 188 191 195 201 205 205 205 204 197 194 194 192 187 186 186 188 191 190 183 181 184 188 192 195 196 195 194 190 188 187 185 182 180 175 170 168 166 166 167 166 167 170 172 175 184 195 203 215 227 236 244 248 249 252 256 258 259 261 265 266 267 268 269 270 271 270
232 244 213 169 163 197 203 201 201 200 201 203 206 210 209 201 195 191 185 183 186 192 198 204 210 208 201 196 195 193 188 186 185 183 182 184 185 184 180 177 181 186 189 192 195 193 191 190 187 182 179 176 172 168 166 165 163 162 163 163 164 167 172 174 183 200 216 239 257 266 275 280 282 281 281 282 283 282 281 279 279 278 277 277 275 272 270
227 210 166 170 168 140 180 192 200 204 206 209 213 216 217 214 210 205 198 195 194 194 200 206 208 205 198 190 188 187 182 178 179 177 176 178 178 175 175 180 183 186 190 192 191 188 185 182 178 173 171 169 165 161 159 157 155 154 156 156 159 164 169 179 206 244 270 288 299 303 303 305 307 306 303 301 301 299 297 294 292 290 289 289 286 283 281
226 157 171 184 189 179 184 192 198 203 208 212 217 220 222 222 220 217 210 205 203 204 206 204 201 201 199 191 187 185 180 177 177 176 174 175 175 174 177 181 183 186 190 188 184 181 179 176 173 171 169 166 162 158 154 151 150 151 151 153 158 161 162 181 222 265 280 292 303 307 308 312 315 315 315 316 313 311 310 308 305 303 301 299 296 293 290
223 212 194 194 199 200 195 197 201 205 208 213 219 223 225 224 222 220 215 212 213 216 214 206 199 198 199 195 190 187 183 179 179 180 178 175 176 178 180 181 184 186 185 183 180 178 175 174 174 172 169 168 166 164 163 162 162 162 162 166 172 174 178 193 209 232 259 275 288 294 299 305 307 307 310 312 312 312 312 311 310 310 309 308 306 302 299
227 227 206 197 204 205 199 198 204 208 211 215 220 223 225 225 224 224 222 220 218 216 215 209 201 196 197 197 193 189 186 183 181 182 181 179 178 179 180 180 181 182 181 180 178 175 175 176 175 173 173 173 172 171 172 172 172 173 174 176 180 183 187 196 208 228 252 270 281 289 293 296 297 297 298 299 300 302 303 303 304 306 308 308 308 307 305
229 223 204 193 202 205 201 202 207 209 211 216 219 220 220 221 223 224 224 223 218 211 209 207 203 197 195 196 194 190 188 185 182 182 183 181 179 177 177 179 179 178 178 177 175 174 175 175 175 174 173 171 170 171 172 173 175 178 178 177 180 184 187 195 210 226 251 270 280 289 294 294 296 297 297 298 300 301 302 304 305 307 309 309 309 309 307
225 214 204 204 211 211 209 209 211 211 212 215 218 218 217 218 219 221 222 221 216 209 204 204 204 200 195 194 193 190 187 185 183 181 180 179 177 174 174 175 176 175 175 175 174 173 171 170 171 172 170 168 168 168 166 165 167 168 168 168 171 174 177 183 193 209 239 265 276 284 289 291 293 295 296 298 301 302 304 307 308 309 311 312 311 310 309
215 205 206 213 219 218 214 210 208 209 211 213 216 218 218 216 214 214 216 216 213 209 204 201 201 201 197 194 192 190 187 184 182 179 176 174 174 174 173 174 174 173 173 173 172 170 168 168 168 168 166 164 163 162 160 159 158 158 160 161 163 166 170 177 191 218 240 258 270 275 280 285 289 292 296 298 301 303 305 307 309 309 310 310 309 308 307
215 207 210 216 220 220 215 208 205 206 208 210 212 214 215 214 211 209 209 209 207 204 200 196 194 193 192 191 189 189 188 183 179 175 172 170 170 171 172 174 173 170 169 169 167 165 163 163 162 162 160 157 155 156 157 156 156 159 160 162 168 178 194 209 229 245 251 260 267 270 276 283 285 289 294 296 299 303 304 305 308 308 309 309 309 308 306
221 216 216 218 216 213 210 205 203 203 204 206 207 206 206 208 207 205 203 202 200 198 195 192 189 187 187 187 185 184 183 180 175 173 170 168 168 168 168 171 172 170 166 164 162 159 157 157 157 157 155 153 154 157 157 157 161 166 168 177 188 199 210 220 230 241 249 259 268 271 280 287 289 293 299 301 302 306 306 307 309 310 310 312 312 310 309
218 216 216 216 212 205 201 200 200 201 201 203 204 204 205 207 207 206 203 199 196 193 191 188 186 183 182 182 180 179 178 175 173 171 169 167 167 166 164 164 165 164 161 158 156 154 153 155 157 155 154 155 157 159 160 163 167 171 176 185 192 197 206 218 230 241 253 263 272 278 286 293 297 302 305 306 307 309 309 310 311 311 311 313 313 312 312
200 203 207 207 203 198 196 197 197 198 200 201 201 203 204 206 206 204 200 195 192 189 186 184 182 180 178 178 176 176 174 171 168 167 165 163 161 159 156 155 155 157 156 154 153 153 153 156 158 156 155 157 159 159 163 166 166 170 175 178 184 194 208 222 238 252 263 274 284 290 297 302 304 306 307 307 307 308 308 309 309 309 310 311 311 310 310
201 208 217 211 205 203 202 198 193 191 191 192 194 197 198 199 200 198 195 191 188 185 183 182 179 176 175 175 173 172 172 170 165 162 159 157 155 151 149 149 151 154 154 151 152 154 154 155 155 154 154 158 160 160 163 164 163 167 171 170 175 191 206 224 247 267 284 295 299 304 307 307 307 307 307 307 307 307 308 309 309 309 309 309 309 309 308
210 221 231 221 214 217 216 203 195 191 187 185 186 189 191 192 193 191 188 186 184 181 179 177 173 171 170 169 167 167 168 166 161 155 152 151 149 146 146 147 150 152 152 149 149 151 151 150 151 151 151 154 155 155 157 158 158 161 165 169 181 200 237 272 286 299 305 305 306 308 307 306 307 308 307 308 308 309 310 310 309 309 309 308 308 307 306
210 220 230 222 217 219 213 199 192 190 187 183 181 181 181 182 183 182 180 178 175 173 170 168 166 164 163 161 160 159 158 156 152 149 147 146 144 143 144 145 146 148 149 147 144 146 147 146 146 146 147 149 151 153 154 156 161 169 181 204 254 290 304 307 309 310 309 308 309 309 307 308 309 308 308 310 310 309 309 309 309 309 308 307 307 306 305
203 207 209 204 201 200 194 187 184 184 181 177 174 172 171 171 170 171 170 167 164 162 162 161 159 157 154 152 151 150 149 147 146 145 143 143 142 142 143 143 141 143 146 145 142 142 143 143 143 145 148 150 153 158 161 165 181 233 285 306 309 310 310 309 308 307 307 307 308 308 308 309 310 309 310 310 309 309 309 308 308 307 307 307 306 306 305
187 188 186 184 183 182 178 174 174 176 176 171 164 162 162 162 160 159 157 154 152 152 152 152 151 150 147 146 145 144 142 141 141 141 140 139 139 140 140 139 139 141 143 142 141 141 142 143 144 146 149 152 154 167 210 293 310 309 308 307 304 303 303 303 303 304 305 306 307 308 309 309 309 309 309 309 309 309 309 308 308 308 307 307 307 306 305
167 166 167 168 169 168 165 160 159 161 163 160 154 151 151 150 150 149 145 142 141 143 145 147 146 144 142 142 141 138 136 135 136 137 136 134 135 136 136 135 135 137 139 139 140 140 140 141 140 139 142 161 264 303 304 302 301 299 298 298 298 299 299 301 302 303 304 306 307 307 308 308 308 308 308 308 309 309 309 309 309 309 308 308 307 307 306
155 153 154 155 155 154 153 150 147 144 144 144 142 139 139 140 142 141 138 134 133 135 139 141 140 137 136 136 135 132 130 130 131 132 131 130 130 132 133 132 131 133 134 133 134 133 131 129 131 142 247 278 281 285 285 286 288 291 292 294 296 297 298 300 301 302 303 305 305 305 305 306 307 307 307 308 308 308 308 308 308 308 308 307 307 306 306
146 146 147 146 144 143 142 140 137 134 132 131 130 129 131 135 136 134 130 127 126 128 130 132 132 130 129 129 129 126 125 125 126 126 126 125 126 127 128 128 127 127 127 126 127 131 139 157 207 242 260 267 271 275 279 283 287 290 292 295 297 298 300 301 302 302 303 303 303 303 304 304 304 305 306 306 306 306 306 306 306 306 306 305 305 305 305
135 135 136 134 133 132 132 131 130 127 124 122 122 123 125 128 129 126 122 121 122 124 125 125 125 125 124 124 124 123 122 122 122 121 121 123 125 124 123 124 124 123 128 137 150 174 209 231 242 251 258 263 270 276 281 285 289 293 295 297 298 299 300 300 301 301 301 301 301 302 302 302 303 303 303 303 303 304 303 303 304 304 304 304 304 304 304
126 127 126 125 124 124 124 124 123 121 118 117 118 120 121 122 122 120 118 119 121 122 122 122 121 120 119 120 121 121 120 120 120 120 121 125 126 124 126 133 134 137 158 187 212 230 238 245 253 260 266 272 278 283 287 290 293 294 295 296 297 297 298 299 299 299 299 300 300 300 301 301 301 301 301 301 301 301 301 301 302 302 302 302 302 302 303
120 121 120 119 119 119 119 118 118 116 114 114 116 116 116 116 115 115 116 118 118 118 118 118 118 118 117 118 120 121 120 120 122 124 126 127 125 124 135 151 170 209 231 241 253 261 264 269 274 278 281 285 288 290 291 292 293 293 294 295 296 296 296 297 298 298 298 299 299 299 299 299 299 299 299 299 299 299 299 299 299 299 299 300 301 301 302
117 116 116 116 116 116 116 115 114 113 112 113 114 113 113 112 112 113 114 115 115 114 114 114 114 114 115 116 117 117 118 119 122 125 127 127 125 128 160 228 264 272 274 278 281 281 282 285 286 287 288 290 290 291 292 292 293 293 294 294 295 295 296 296 296 297 297 297 297 297 297 297 297 297 297 297 297 297 297 298 298 299 300 301 301 302 302
115 114 115 116 115 114 113 112 111 111 113 114 114 112 111 111 111 111 111 111 111 111 110 109 109 109 108 109 109 109 110 113 115 112 113 127 278 290 290 289 289 288 287 287 287 286 287 288 288 288 289 289 289 290 291 291 291 292 293 293 293 294 294 294 294 294 295 294 294 294 294 294 295 295 295 296 296 297 298 298 299 300 301 301 302 303 303
113 114 114 112 111 110 110 110 110 112 114 113 111 109 109 110 110 110 110 109 108 107 106 105 105 104 102 103 103 102 106 105 340 299 294 291 290 289 288 288 288 288 288 288 287 287 287 287 287 287 288 288 289 289 290 290 290 291 291 292 292 292 292 292 292 292 292 292 292 292 292 293 293 294 294 295 296 297 298 299 300 301 302 303 304 304 305
112 111 109 108 107 107 109 110 112 112 111 109 108 109 110 111 111 110 110 110 110 110 110 110 110 110 113 118 247 282 285 291 293 291 290 290 289 288 287 287 287 286 287 287 287 287 287 287 287 287 288 288 289 289 289 290 290 290 290 290 290 290 290 290 290 289 289 290 290 291 291 292 292 293 294 295 297 298 299 301 302 304 305 306 306 307 309
109 108 107 107 107 108 109 112 112 110 107 107 110 112 112 113 115 117 117 118 120 120 119 124 137 215 270 282 287 288 289 292 293 291 291 292 292 291 290 289 288 287 287 286 286 286 286 287 287 287 287 288 288 288 288 288 289 288 288 288 288 288 288 288 288 288 289 289 289 290 291 292 293 294 296 297 299 301 302 304 305 306 307 308 309 310 311
106 106 107 106 105 104 105 108 110 108 104 105 110 114 114 116 120 120 119 124 138 164 245 264 274 282 284 286 288 289 290 291 292 291 291 291 291 290 289 289 288 287 286 285 285 285 285 285 286 286 287 287 287 287 287 286 286 286 286 287 287 287 287 288 288 288 289 289 289 290 291 293 294 296 298 300 302 303 304 305 306 307 307 308 308 309 309
105 106 106 106 106 104 101 101 106 110 107 103 107 114 122 132 147 168 232 263 270 276 279 279 280 281 281 282 284 285 285 286 287 287 287 287 287 287 286 286 285 284 283 283 283 283 283 283 284 284 284 284 284 284 284 284 284 285 285 285 286 286 286 287 288 288 289 289 290 291 293 294 296 298 299 301 302 302 303 303 304 304 305 305 305 305 306
108 109 109 111 113 113 110 109 113 119 125 131 142 162 197 231 247 259 267 271 272 273 276 277 278 280 282 283 284 285 285 285 286 286 285 284 284 283 283 282 281 281 281 281 281 281 281 281 281 281 281 281 281 282 282 282 283 284 284 285 285 286 287 288 288 289 289 290 291 292 294 296 297 298 299 299 299 299 300 300 301 301 302 303 303 304 304